Starlink 11665

operational
NORAD ID: 63549 Int'l Des: 2025-075 Owner: SPXS Country: US Constellation: starlink
LEOCIRCULAR

Über Starlink 11665

Beschreibung wird geladen...

Live-Position

3D-Globus wird geladen...

Nächste Überflüge

Höhenverlauf

Altitude vs Time

uPlot chart will show altitude changes over time

Zweizeiliger Elementsatz

1 63549U 25075B 25350.23274070 .00171003 00000-0 13060-2 0 9990
2 63549 43.0008 296.7989 0001678 280.1410 79.9268 15.70893740 40124
Epoch: 16. Dez. 2025 • Age: 16 hours

Aktueller Status

Höhe 359.2 km
Geschwindigkeit 7.70 km/s
Subsatellitenpunkt 39.66°N, 5.21°E
Startdatum 13. Apr. 2025
Alter 0.6 years
Typ internet

Technische Details

Klassifizierung Payload
Masse 960.00 kg
Trockenmasse 910.00 kg
Gesamtmasse 960.00 kg
Länge 0.30 m
Durchmesser 4.10 m
Spannweite 29.00 m
Form Box + pan
Hersteller SPXS
Bus-Typ Starlink V2MD
Phasenstatus In Orbit
Besitzer/Staat SPXS/US

Große Konstellationen

Loading constellations...